Temp
-14 -14 -14 -14 -14 -14 -14 -14 -14 -14 -15 -14 -13 -13 -14 -14 -14 -14 -14 -14 -14 -14 -14 -14 -13 -13 -13 -13 -13 -13 -13 -13 -13 -13 -13 -13 -13 -13
-13 -13 -13 -14 -14 -14 -14 -14 -14 -14 -14 -14 -14 -13 -13 -13 -13 -14 -14 -14 -14 -14 -14 -14 -14 -14 -14 -14 -14 -14 -14 -13 -13 -13 -13 -13 -13 -13
-13 -13 -13 -13 -13 -13 -13 -13 -13 -13 -13 -14 -14 -13 -13 -13 -13 -13 -13 -14 -14 -14 -14 -14 -14 -14 -14 -14 -14 -14 -14 -14 -14 -13 -13 -13 -13 -13
-13 -13 -13 -13 -13 -13 -13 -13 -13 -13 -13 -13 -14 -13 -13 -13 -13 -13 -14 -14 -14 -14 -14 -14 -14 -14 -14 -14 -14 -14 -14 -14 -14 -13 -13 -13 -13 -13
-13 -13 -13 -13 -13 -13 -13 -13 -14 -14 -14 -14 -14 -14 -14 -13 -14 -14 -14 -14 -14 -14 -14 -14 -14 -14 -14 -14 -14 -14 -14 -15 -14 -14 -15 -16 -15 -14
-14 -14 -14 -15 -15 -14 -14 -14 -14 -14 -14 -14 -15 -15 -15 -14 -14 -14 -14 -14 -14 -14 -14 -14 -15 -15 -15 -15 -15 -15 -14 -14 -16 -16 -17 -18 -20 -20
-15 -14 -14 -14 -14 -14 -14 -14 -14 -14 -14 -14 -14 -15 -15 -15 -15 -15 -15 -15 -15 -15 -15 -15 -15 -15 -15 -15 -15 -15 -15 -16 -16 -16 -17 -18 -19 -21
-15 -14 -14 -14 -14 -15 -15 -15 -15 -15 -15 -15 -15 -15 -15 -16 -16 -16 -15 -15 -15 -16 -15 -16 -15 -15 -15 -16 -16 -16 -15 -17 -16 -17 -16 -18 -19 -20
-14 -15 -15 -15 -15 -15 -15 -15 -15 -14 -14 -14 -15 -15 -15 -16 -16 -17 -16 -16 -16 -16 -16 -16 -16 -16 -16 -16 -16 -16 -16 -17 -16 -17 -16 -17 -17 -17
-15 -15 -15 -15 -15 -15 -15 -15 -15 -15 -15 -15 -15 -16 -16 -16 -16 -17 -17 -17 -17 -17 -17 -17 -17 -17 -17 -16 -16 -16 -16 -17 -17 -17 -17 -17 -17 -17
-16 -16 -16 -16 -16 -16 -16 -16 -17 -17 -17 -17 -16 -16 -17 -17 -17 -18 -18 -18 -18 -18 -18 -18 -18 -18 -18 -17 -17 -17 -16 -16 -17 -17 -17 -16 -17 -17
-17 -17 -17 -17 -17 -17 -17 -17 -18 -18 -18 -18 -18 -18 -18 -19 -19 -19 -19 -19 -19 -19 -19 -19 -19 -19 -19 -18 -18 -18 -17 -17 -17 -18 -17 -17 -17 -17
-18 -18 -18 -17 -18 -17 -17 -18 -18 -19 -19 -20 -20 -20 -20 -20 -20 -21 -21 -21 -21 -20 -20 -20 -20 -20 -20 -19 -19 -18 -17 -17 -17 -17 -18 -18 -17 -17
-18 -18 -18 -18 -18 -19 -19 -19 -20 -20 -21 -21 -21 -21 -21 -22 -22 -22 -22 -22 -22 -22 -21 -20 -20 -20 -20 -20 -19 -19 -18 -18 -17 -17 -18 -18 -18 -17
-19 -19 -19 -19 -19 -20 -20 -20 -21 -21 -21 -21 -21 -22 -22 -22 -22 -23 -23 -23 -23 -22 -22 -21 -21 -20 -20 -20 -20 -20 -19 -18 -18 -17 -18 -18 -18 -18
-20 -20 -20 -20 -21 -21 -21 -21 -22 -22 -22 -22 -22 -22 -22 -22 -23 -23 -24 -23 -23 -24 -23 -22 -21 -21 -20 -20 -20 -20 -20 -19 -18 -18 -18 -18 -18 -18
-21 -21 -21 -21 -22 -22 -22 -22 -22 -22 -23 -22 -23 -23 -23 -23 -24 -24 -24 -23 -24 -24 -24 -23 -22 -21 -21 -20 -20 -20 -20 -20 -19 -18 -18 -18 -18 -18
-22 -22 -22 -22 -23 -23 -23 -23 -23 -23 -23 -23 -24 -24 -24 -24 -24 -24 -24 -23 -23 -24 -24 -24 -23 -22 -21 -22 -21 -21 -20 -20 -20 -19 -19 -18 -18 -18
-23 -23 -23 -23 -23 -24 -24 -24 -24 -24 -24 -24 -25 -25 -25 -25 -25 -24 -24 -24 -23 -24 -24 -24 -23 -23 -22 -21 -21 -21 -21 -21 -20 -20 -19 -19 -18 -18
-24 -24 -24 -25 -25 -25 -25 -25 -26 -26 -25 -26 -26 -26 -26 -26 -25 -25 -24 -24 -24 -25 -25 -24 -24 -23 -22 -22 -22 -21 -21 -21 -21 -20 -20 -20 -19 -19
-26 -26 -26 -27 -27 -27 -27 -27 -27 -27 -27 -27 -27 -26 -26 -26 -25 -25 -25 -24 -24 -25 -25 -25 -24 -24 -23 -22 -22 -22 -21 -21 -21 -21 -20 -20 -20 -19
-28 -28 -28 -28 -28 -28 -28 -28 -28 -28 -28 -27 -27 -27 -26 -26 -26 -25 -25 -25 -25 -25 -25 -25 -24 -24 -24 -23 -22 -22 -22 -22 -21 -21 -20 -20 -20 -20
-29 -29 -30 -30 -30 -30 -30 -29 -29 -29 -28 -28 -28 -27 -27 -27 -26 -26 -26 -27 -27 -26 -26 -25 -25 -24 -24 -24 -23 -23 -22 -22 -22 -22 -21 -21 -20 -20
Height
5672 5671 5670 5668 5667 5666 5664 5663 5664 5663 5661 5652 5650 5646 5645 5645 5644 5644 5643 5641 5640 5639 5639 5638 5638 5638 5638 5638 5639 5639 5640 5641 5642 5644 5645 5646 5647 5650
5664 5663 5662 5660 5659 5656 5654 5653 5652 5651 5652 5648 5641 5639 5637 5636 5635 5634 5633 5631 5630 5630 5630 5630 5629 5628 5628 5628 5628 5627 5627 5627 5628 5628 5628 5629 5629 5631
5655 5654 5652 5650 5648 5646 5645 5643 5642 5640 5640 5638 5635 5631 5629 5629 5627 5626 5624 5622 5621 5620 5620 5620 5619 5617 5616 5615 5615 5614 5613 5612 5611 5609 5608 5608 5609 5610
5646 5644 5642 5640 5638 5636 5634 5632 5631 5629 5629 5628 5623 5621 5619 5618 5617 5616 5615 5613 5611 5610 5609 5609 5607 5606 5605 5603 5601 5599 5597 5595 5592 5588 5583 5581 5579 5582
5634 5632 5630 5628 5626 5624 5622 5620 5618 5617 5615 5615 5614 5610 5608 5606 5606 5605 5603 5602 5601 5599 5597 5596 5595 5594 5593 5590 5588 5585 5582 5576 5571 5564 5553 5541 5537 5542
5622 5620 5617 5614 5612 5610 5608 5606 5604 5603 5601 5600 5599 5598 5596 5592 5593 5592 5591 5590 5589 5588 5586 5585 5583 5581 5579 5577 5575 5571 5566 5558 5549 5543 5532 5519 5508 5505
5608 5605 5603 5601 5599 5597 5595 5593 5591 5590 5588 5586 5585 5583 5582 5580 5577 5576 5577 5575 5574 5573 5573 5571 5571 5569 5566 5563 5560 5556 5550 5541 5537 5528 5518 5501 5487 5478
5594 5592 5590 5588 5585 5583 5580 5578 5577 5575 5573 5571 5570 5568 5566 5565 5564 5562 5561 5561 5560 5557 5557 5557 5555 5554 5552 5550 5547 5542 5537 5531 5526 5519 5511 5500 5478 5468
5581 5578 5575 5573 5571 5568 5566 5563 5560 5559 5557 5555 5554 5551 5550 5548 5547 5545 5544 5543 5543 5543 5540 5544 5538 5539 5537 5536 5534 5531 5527 5522 5518 5513 5506 5499 5492 5486
5566 5563 5560 5558 5556 5553 5550 5547 5545 5542 5541 5538 5537 5535 5532 5530 5528 5527 5525 5524 5525 5524 5522 5527 5524 5523 5523 5522 5522 5519 5516 5513 5510 5509 5504 5496 5496 5495
5550 5547 5545 5542 5540 5537 5534 5530 5527 5524 5521 5518 5516 5514 5511 5508 5506 5505 5504 5504 5505 5505 5504 5507 5510 5509 5508 5508 5508 5507 5505 5503 5500 5500 5501 5498 5493 5497
5533 5530 5528 5525 5521 5519 5516 5512 5508 5505 5501 5498 5495 5492 5490 5487 5484 5483 5482 5481 5481 5484 5485 5486 5489 5491 5494 5494 5493 5494 5493 5492 5490 5489 5490 5492 5493 5492
5516 5511 5508 5507 5502 5499 5496 5492 5489 5485 5481 5478 5475 5472 5469 5466 5464 5462 5461 5461 5461 5462 5463 5465 5470 5470 5473 5478 5479 5479 5480 5479 5479 5478 5478 5480 5482 5485
5496 5491 5487 5485 5483 5478 5475 5472 5469 5465 5462 5460 5457 5454 5451 5446 5444 5443 5441 5441 5441 5443 5442 5445 5448 5450 5454 5459 5462 5465 5465 5466 5467 5467 5467 5468 5469 5472
5474 5469 5465 5463 5461 5458 5453 5450 5448 5446 5443 5441 5439 5436 5432 5429 5426 5424 5423 5422 5422 5424 5425 5426 5428 5430 5433 5439 5445 5449 5451 5453 5454 5455 5456 5456 5457 5460
5450 5448 5444 5440 5438 5435 5431 5428 5426 5425 5423 5422 5421 5418 5414 5412 5409 5408 5406 5404 5404 5406 5408 5409 5411 5413 5416 5422 5427 5432 5436 5439 5442 5443 5445 5446 5446 5448
5424 5425 5422 5418 5415 5411 5409 5406 5404 5404 5404 5403 5402 5400 5397 5395 5393 5391 5390 5389 5389 5390 5391 5393 5394 5397 5399 5404 5410 5415 5420 5424 5428 5431 5433 5435 5436 5438
5400 5401 5398 5394 5392 5389 5385 5385 5385 5385 5385 5385 5383 5382 5380 5378 5377 5375 5375 5374 5374 5375 5376 5377 5379 5383 5386 5390 5395 5401 5405 5410 5413 5417 5420 5424 5427 5429
5372 5372 5370 5366 5366 5364 5364 5364 5366 5365 5366 5366 5365 5365 5363 5362 5361 5360 5360 5360 5359 5359 5362 5364 5366 5368 5372 5375 5379 5384 5389 5394 5399 5402 5407 5411 5415 5419
5341 5341 5341 5339 5340 5340 5342 5344 5346 5346 5347 5348 5348 5348 5348 5347 5346 5346 5346 5346 5345 5345 5347 5350 5352 5355 5358 5362 5366 5369 5372 5377 5382 5388 5393 5397 5402 5406
5315 5314 5314 5315 5317 5319 5322 5324 5327 5328 5331 5332 5333 5333 5333 5333 5331 5331 5331 5331 5332 5332 5334 5337 5340 5342 5345 5347 5352 5356 5358 5362 5367 5373 5378 5383 5388 5392
5293 5294 5295 5296 5299 5302 5305 5307 5311 5314 5316 5317 5319 5319 5319 5319 5318 5318 5317 5317 5318 5319 5321 5324 5327 5330 5332 5334 5337 5342 5346 5350 5353 5358 5363 5369 5375 5379
5275 5276 5278 5280 5284 5287 5291 5294 5298 5300 5303 5304 5305 5306 5306 5306 5306 5305 5305 5305 5306 5308 5310 5312 5314 5317 5319 5322 5325 5328 5332 5336 5341 5345 5350 5355 5360 5364
Wind_Speed
36 37 37 37 37 38 38 38 37 34 33 42 36 29 24 26 30 31 33 33 32 32 32 34 36 37 38 40 42 44 45 47 49 52 56 59 60 64
37 39 40 39 40 40 41 40 39 37 32 35 40 31 26 26 27 28 30 30 33 33 33 33 34 35 37 41 45 49 51 54 55 57 60 63 65 69
36 38 40 40 41 41 41 41 39 36 35 34 38 41 36 31 31 30 29 28 27 31 34 35 36 37 39 41 42 46 51 55 56 59 60 64 68 74
36 37 39 39 42 42 40 40 41 46 42 40 37 40 42 42 39 37 37 33 31 30 32 33 35 35 36 39 43 46 49 55 62 67 74 80 83 82
39 39 40 40 41 43 43 45 46 48 46 46 40 39 41 44 46 46 44 42 39 39 39 37 39 41 40 43 46 46 50 56 64 69 70 80 86 89
43 45 46 46 46 47 48 47 48 50 48 46 45 51 48 46 50 52 50 49 49 47 45 44 43 43 42 44 48 47 50 58 47 47 56 62 60 67
45 45 45 45 46 47 47 48 46 46 48 48 47 46 48 48 50 52 50 51 52 52 52 51 49 47 46 46 49 48 50 42 39 44 48 39 44 52
47 48 48 49 49 50 49 49 49 49 50 50 51 52 52 52 52 53 56 56 56 53 55 53 55 52 50 49 50 44 48 38 37 40 40 32 20 15
47 47 47 48 49 49 49 50 50 50 52 52 53 54 55 57 56 57 58 60 58 56 57 53 54 54 52 51 50 48 42 37 33 33 34 27 20 10
50 49 49 49 49 49 50 52 53 54 54 56 57 58 59 61 62 62 63 62 62 61 59 56 49 49 49 49 48 47 41 39 38 28 23 30 22 17
53 52 51 53 54 54 55 56 58 59 59 60 60 62 64 65 65 64 65 64 66 62 61 64 52 50 46 45 49 46 43 39 36 41 27 24 28 18
56 57 56 56 58 59 60 60 61 62 63 63 64 64 64 63 61 60 61 64 68 64 64 63 63 59 53 50 51 49 45 40 35 37 41 36 27 27
61 62 63 63 65 64 64 64 65 66 65 62 61 62 62 60 60 61 59 57 58 62 60 65 62 64 55 53 49 48 48 41 38 34 34 41 36 34
65 67 69 69 69 70 69 68 69 67 64 62 60 60 59 59 59 61 60 58 54 53 54 58 65 69 57 58 51 48 45 40 38 35 33 35 35 42
70 72 74 74 73 73 72 71 71 67 64 61 61 59 58 56 58 59 57 55 53 52 51 53 51 52 58 60 55 45 43 40 37 37 31 33 33 36
76 76 76 76 74 73 72 71 69 66 64 62 60 58 56 55 57 54 53 52 49 50 52 49 51 49 51 51 52 48 42 40 39 35 33 28 33 33
78 75 73 70 69 68 68 68 67 65 63 62 58 57 54 54 53 51 50 48 46 46 47 47 46 47 44 49 55 50 49 44 38 36 34 33 28 30
74 71 71 71 72 72 71 69 67 65 63 60 57 55 54 52 52 52 49 45 44 43 43 43 44 44 41 48 53 51 47 48 43 37 35 37 35 29
81 77 73 74 74 74 72 69 65 64 61 58 55 54 52 50 50 50 45 42 41 39 41 38 39 42 45 42 45 50 53 51 49 43 39 37 38 35
77 71 68 65 66 66 65 63 59 58 58 54 52 51 49 48 49 47 44 41 38 37 39 38 38 38 41 46 46 44 44 49 52 50 45 41 39 38
61 55 55 55 54 54 53 52 53 54 52 51 48 47 46 46 45 43 41 39 38 37 39 41 38 37 37 38 43 40 40 44 46 53 50 46 43 40
50 47 45 47 46 46 47 50 49 48 46 43 43 43 41 41 40 38 38 37 36 36 38 40 40 37 37 35 36 41 41 38 38 46 54 50 44 45
42 41 39 40 39 42 42 43 40 38 36 36 37 36 36 35 35 36 36 33 32 33 34 36 37 38 37 37 38 36 39 43 42 40 44 52 50 48
Wind_Direction
269 272 275 277 276 277 279 282 285 287 290 291 294 297 284 275 280 284 282 279 275 275 276 275 274 272 271 269 267 266 264 263 263 263 263 262 259 256
272 274 277 277 277 279 281 286 289 290 289 288 285 283 280 274 275 281 283 283 277 274 274 275 276 276 274 272 271 269 268 268 267 266 265 262 260 258
275 274 275 276 275 278 281 284 288 287 286 288 281 279 277 271 277 277 278 281 281 280 277 278 280 279 277 275 275 273 271 269 270 271 269 270 264 257
277 278 278 279 279 278 280 280 281 283 285 284 284 277 274 273 271 274 274 271 272 273 277 281 282 285 287 286 285 284 286 279 276 276 276 272 268 262
272 273 276 277 277 278 278 277 279 282 283 278 283 285 282 276 274 272 269 269 268 269 271 272 277 282 287 290 292 291 292 284 282 283 282 274 263 256
274 272 274 275 277 279 278 281 280 282 284 282 279 277 280 277 276 275 273 273 274 273 273 273 275 278 282 289 294 296 296 297 288 287 299 291 267 255
274 275 276 276 277 279 280 282 281 281 282 284 283 282 277 276 277 272 273 276 272 271 275 276 273 276 281 284 293 300 300 288 284 296 304 291 282 258
278 278 277 276 277 278 278 278 278 279 279 279 279 279 279 279 274 272 270 270 270 268 269 273 275 277 278 281 291 297 304 276 291 293 298 316 308 225
280 280 281 281 280 281 282 284 285 284 284 284 284 282 280 278 275 269 270 270 270 269 270 271 272 273 274 277 285 294 299 270 282 303 296 300 292 290
277 278 278 279 279 280 281 281 281 282 282 280 280 279 280 279 275 271 269 266 266 268 269 269 268 270 273 274 280 284 286 277 270 288 280 287 280 271
277 277 278 279 281 282 282 282 281 282 282 281 281 281 281 280 277 274 269 270 263 262 263 267 263 266 269 271 280 278 283 285 274 265 276 268 273 256
279 280 280 281 283 283 282 283 283 284 284 285 285 285 284 283 281 277 271 268 265 265 259 262 263 261 263 266 270 274 276 277 280 266 260 262 262 254
280 281 282 284 284 284 283 283 283 284 285 286 287 286 284 283 280 279 275 272 269 266 265 257 258 262 258 257 262 263 268 270 272 271 262 254 254 251
279 281 282 283 284 284 284 283 283 283 284 284 284 283 283 282 280 279 279 276 270 268 266 264 258 261 251 256 252 258 259 262 264 271 264 257 253 250
279 280 282 282 282 283 283 282 283 283 282 282 281 282 282 282 281 282 282 279 274 267 265 261 263 259 248 248 257 247 250 255 258 262 267 256 255 249
279 280 281 282 283 282 281 280 279 279 279 278 279 280 280 281 282 283 280 281 274 267 264 262 260 266 256 248 239 240 242 247 251 251 258 258 249 248
281 281 281 280 280 279 278 277 277 277 277 278 278 278 279 280 280 279 280 280 277 271 267 264 260 261 261 245 236 242 251 242 242 246 248 253 250 245
281 280 279 276 275 274 273 274 275 275 276 276 276 276 278 277 277 277 281 279 275 270 267 266 266 255 258 251 244 244 249 240 235 241 245 248 251 246
279 278 276 272 270 269 270 270 272 272 272 272 272 275 275 276 276 279 281 279 276 264 259 262 265 264 255 255 251 248 247 245 245 235 239 243 246 245
282 278 274 270 268 267 267 267 267 267 267 269 272 274 275 276 278 279 279 277 271 262 256 260 259 260 260 253 256 256 251 244 245 242 234 236 241 242
282 277 273 268 262 260 259 260 261 263 266 269 272 274 275 277 278 280 277 270 265 259 253 252 256 251 255 255 251 252 250 243 243 247 238 232 236 237
281 277 270 265 260 256 256 257 259 262 266 269 270 271 274 278 280 276 272 268 264 257 251 249 249 254 250 250 255 250 248 246 248 248 237 234 239 247
279 275 267 260 255 256 256 258 261 265 263 264 268 273 277 277 273 271 270 267 265 259 256 254 251 251 257 250 246 248 248 248 247 245 244 241 242 244